Regional Weather Roundup
Issued by NWS Cleveland, OH

Home | Current Version | Previous Version | Graphics & Text | Print | Product List | Glossary On
Versions: 1 2 3 4 5 6 7 8 9 10 11 12 13 14 15 16 17 18 19 20 21 22 23 24 25 26 27 28 29 30 31 32 33 34 35 36 37 38 39 40 41 42 43 44 45 46 47 48 49 50
000
ASUS41 KCLE 041402
RWRCLE
OHIO REGIONAL WEATHER ROUNDUP
NATIONAL WEATHER SERVICE CLEVELAND, OH
1000 AM EDT MON MAY 04 2015

NOTE: "FAIR" INDICATES FEW OR NO CLOUDS BELOW 12,000 FEET WITH NO
SIGNIFICANT WEATHER AND/OR OBSTRUCTIONS TO VISIBILITY.

OHZ001>008-015>018-024>027-034-035-043-044-041500-
   NORTHWEST OHIO

CITY           SKY/WX    TMP DP  RH WIND       PRES   REMARKS
DEFIANCE       CLOUDY    70  49  47 SW18G24   30.06S
FINDLAY        PTSUNNY   72  50  45 SW16G28   30.09S
TOLEDO EXPRESS CLOUDY    71  48  43 SW15G24   30.05S
TOLEDO EXEC    PTSUNNY   72  48  42 SW18G26   30.06F
LIMA           PTSUNNY   70  50  49 SW16      30.11S
$$

OHZ009>014-019>023-028>033-038-089-041500-
   NORTHEAST OHIO

CITY           SKY/WX    TMP DP  RH WIND       PRES   REMARKS
CLE-HOPKINS    MOSUNNY   72  49  44 SW12G21   30.12F
CLE-LAKEFRONT  MOSUNNY   75  48  38 S17       30.09S
CUY CO. ARPT   NOT AVBL
LORAIN-ELYRIA  MOSUNNY   73  50  44 SW14      30.11S
ASHTABULA      MOSUNNY   71  45  39 S13       30.13F
AKRON-CANTON   MOSUNNY   71  46  40 SW10      30.16S
WOOSTER        SUNNY     70  47  43 SW15G21   30.15S
MANSFIELD      SUNNY     72  49  44 S16       30.14S
YOUNGSTOWN     MOSUNNY   73  44  35 SW13      30.15F
$$

OHZ042-051>053-060>062-070>072-077>081-041500-
  SOUTHWEST OHIO

CITY           SKY/WX    TMP DP  RH WIND       PRES   REMARKS
CINC-COVINGTON PTSUNNY   69  52  54 SW8       30.19R
CINC-LUNKEN    SUNNY     69  55  60 S7        30.19R
HAMILTON       SUNNY     72  53  51 VRB7      30.18R
DAYTON         PTSUNNY   71  52  50 SW12      30.16S
WRIGHT-PAT AFB MOSUNNY   72  52  49 SW13      30.15S
DAYTON GENERAL SUNNY     70  51  51 SW12      30.17R
WILMINGTON     SUNNY     70  51  51 SW12      30.18R
$$

OHZ036-037-039>041-045>050-054>059-063>069-073>076-082>088-041500-
  CENTRAL AND SOUTHEAST OHIO

CITY           SKY/WX    TMP DP  RH WIND       PRES   REMARKS
COLUMBUS       MOSUNNY   70  50  49 SW8       30.17R
OSU AIRPORT    SUNNY     70  51  51 SW12      30.16S
BOLTON FIELD   SUNNY     70  54  56 SW9       30.18R
RICKENBACK AFB NOT AVBL
NEWARK         SUNNY     70  52  52 S9        30.17R
MARION         SUNNY     71  50  47 SW13      30.14S
LANCASTER      SUNNY     72  50  45 SW12      30.18S
ZANESVILLE     SUNNY     68  47  46 S7        30.18S
NEW PHILLY     SUNNY     74  44  34 VRB3      30.18S
$$


USA.gov is the U.S. government's official web portal to all federal, state and local government web resources and services.